STARLINK-5267 (55655 NORAD) Tracking and Keplerian Element Data

This shows tracking and keplerian element data for the satellite.

Feedback or suggestion? Click here.




ElementValue
Catalog55655
NameSTARLINK-5267
Epoch Orbit625
Epoch Day85.16999225
Epoch Year2023
RAAN47.5898
Inclination70.0032
Eccentricity0.0002765
Argument of Perigee267.6254
Mean Anonmoly92.4625
Mean Motion15.69947869
Decay Rate8.221E-05
L11 55655U 23021AD 23085.16999225 .00008221 00000+0 70005-4 0 9993
L22 55655 70.0032 47.5898 0002765 267.6254 92.4625 15.69947869 6258



Live tracking and technical data element details for STARLINK-5267 (NORAD 55655). STARLINK-5267 can be tracked NOW for your location showing map with azimuth and elevation plus other details from your city location.







IsCatalogInMostPopularTable: catalog: 55655, numindb: 2
Update: records affected: 1



GetName: 55655 STARLINK-5267

Hit Count: updated at: Tue, 28 Mar 2023 03:18:16 GMT